Weather History for Fountain Dale, PA

Change the Weather History Date:

Friday, February 28, 2014

  Actual Average (KHGR) Record (KHGR)
Temperature  
Mean Temperature 13 °F -  
Max Temperature 23 °F 43 °F 60 °F (2011)
Min Temperature 3 °F 27 °F 5 °F (2014)
Degree Days  
Heating Degree Days 52    
Moisture  
Dew Point -5 °F    
Average Humidity 46    
Maximum Humidity 67    
Minimum Humidity 31    
Precipitation  
Precipitation 0.00 in - - ()
Sea Level Pressure  
Sea Level Pressure 30.36 in    
Wind  
Wind Speed 2 mph (North)    
Max Wind Speed 8 mph    
Max Gust Speed -    
Visibility 10 miles    
Events      
Averages and records for this station are not official NWS values.
T = Trace of Precipitation, MM = Missing Value Source: NWS Daily Summary

Daily Weather History Graph

Daily Weather History Graph

Search for Another Location

Airport:

Trip Planner

Search our weather history database for the weather conditions in past years. The results will help you decide how hot, cold, wet, or windy it might be!

Date:

Astronomy

Feb. 28, 2014 Rise Set
Actual Time 6:44 AM EST 6:00 PM EST
Civil Twilight 6:17 AM EST 6:27 PM EST
Nautical Twilight 5:46 AM EST 6:59 PM EST
Astronomical Twilight 5:14 AM EST 7:30 PM EST
Moon 5:57 AM EST (2/28) 5:35 PM EST (2/28)
Length of Visible Light 12h 10m
Length of Day
11h 16m
Waning Crescent, 1% of the Moon is Illuminated
Feb 28
Waning Crescent
Mar 1
New
Mar 8
First Quarter
Mar 16
Full
Mar 23
Last Quarter

Hourly Weather History & Observations

Time (EST) Temp. Windchill Dew Point Humidity Pressure Visibility Wind Dir Wind Speed Gust Speed Precip Events Conditions
12:53 AM 9.0 °F -2.2 °F -8.0 °F 46% 30.22 in 10.0 mi NNW 6.9 mph - N/A   Clear
1:53 AM 9.0 °F 0.6 °F -9.9 °F 42% 30.23 in 10.0 mi Variable 4.6 mph - N/A   Clear
2:53 AM 7.0 °F - -9.0 °F 48% 30.26 in 10.0 mi Calm Calm - N/A   Clear
3:53 AM 7.0 °F - -11.0 °F 44% 30.28 in 10.0 mi Calm Calm - N/A   Clear
4:53 AM 6.1 °F - -9.9 °F 48% 30.30 in 10.0 mi Calm Calm - N/A   Clear
5:53 AM 3.9 °F - -7.1 °F 60% 30.35 in 10.0 mi Calm Calm - N/A   Clear
6:53 AM 5.0 °F - -9.0 °F 52% 30.37 in 10.0 mi Calm Calm - N/A   Clear
7:53 AM 6.1 °F - -9.0 °F 50% 30.40 in 10.0 mi Calm Calm - N/A   Clear
8:53 AM 10.0 °F - -11.9 °F 37% 30.44 in 10.0 mi Calm Calm - N/A   Clear
10:53 AM 15.1 °F - -7.1 °F 37% 30.44 in 10.0 mi Calm Calm - N/A   Clear
11:53 AM 18.0 °F 11.1 °F -6.0 °F 35% 30.42 in 10.0 mi Variable 4.6 mph - N/A   Clear
12:53 PM 18.0 °F 12.7 °F -8.0 °F 31% 30.40 in 10.0 mi WSW 3.5 mph - N/A   Clear
1:53 PM 19.9 °F - -5.1 °F 33% 30.38 in 10.0 mi Calm Calm - N/A   Clear
2:53 PM 21.0 °F 11.4 °F -4.0 °F 33% 30.38 in 10.0 mi NE 8.1 mph - N/A   Clear
3:53 PM 23.0 °F 15.8 °F -2.0 °F 34% 30.37 in 10.0 mi NE 5.8 mph - N/A   Clear
4:53 PM 23.0 °F - -0.9 °F 35% 30.38 in 10.0 mi Calm Calm - N/A   Clear
5:53 PM 19.9 °F - -2.0 °F 38% 30.38 in 10.0 mi Calm Calm - N/A   Clear
6:53 PM 18.0 °F - 1.9 °F 50% 30.39 in 10.0 mi Calm Calm - N/A   Clear
7:53 PM 17.1 °F - 1.0 °F 50% 30.38 in 10.0 mi Calm Calm - N/A   Clear
8:53 PM 15.1 °F - 3.0 °F 59% 30.39 in 10.0 mi Calm Calm - N/A   Clear
9:53 PM 14.0 °F - 1.9 °F 59% 30.40 in 10.0 mi Calm Calm - N/A   Clear
10:53 PM 12.9 °F - 3.0 °F 65% 30.40 in 10.0 mi Calm Calm - N/A   Clear
11:53 PM 12.9 °F - 3.9 °F 67% 30.41 in 10.0 mi Calm Calm - N/A   Clear